DateTimeUTC,F1_A11,F1_S11,BsB_S11,BsG_S11,BsR_S11,BbsB_S11,BbsG_S11,BbsR_S11,BaB_A11,BaG_A11,BaR_A11,Tu_S11,T_S11,Uu_S11,U_S11,P_S11,T1_A11
2021-09-16T20:00:00Z,00000200,21000000,,,,,,,-000.43,-000.32,-000.60,18.3,25.8,,00.0,0658.9,31.1
2021-09-16T20:01:00Z,00000200,21000000,,,,,,,-000.04,0000.04,0000.16,18.3,25.8,,00.0,0658.9,31.1
2021-09-16T20:02:00Z,00000200,21000000,,,,,,,0000.22,0000.15,-000.35,18.3,25.8,,00.0,0658.9,31.1
2021-09-16T20:03:00Z,00000200,61000000,,,,,,,-000.48,-000.39,-000.19,18.3,25.8,,00.0,0658.9,31.1
2021-09-16T20:04:00Z,00000200,41000000,0004.05,0002.56,0001.41,0000.32,0000.03,0000.03,0000.17,-000.03,0000.52,18.4,25.6,,00.0,0659.8,31.1
2021-09-16T20:05:00Z,00000200,01000000,0003.86,0002.57,0001.48,0000.03,0000.07,0000.14,0000.34,0000.02,-000.02,18.4,25.5,,00.0,0659.9,31.1
2021-09-16T20:06:00Z,00000200,01000000,0004.17,0003.24,0001.31,0000.47,0000.29,0000.13,0000.04,0000.38,-000.15,18.4,25.4,,00.0,0659.9,31.0
2021-09-16T20:07:00Z,00000200,01000000,0003.53,0002.42,0001.80,0000.36,0000.50,0000.19,-000.01,-000.03,0000.47,18.4,25.4,,00.0,0659.9,31.0
2021-09-16T20:08:00Z,00000200,01000000,0004.31,0002.54,0001.55,0000.05,-000.02,0000.31,0000.35,0000.18,0000.05,18.3,25.4,,00.0,0659.9,31.0
2021-09-16T20:09:00Z,00000200,01000000,0003.93,0002.89,0001.69,0000.52,0000.59,0000.18,0000.61,0000.53,0000.27,18.3,25.4,,00.0,0659.9,31.0
2021-09-16T20:10:00Z,00000200,01000000,0003.50,0002.68,0001.46,0000.16,0000.17,0000.32,0000.53,0000.31,0000.55,18.3,25.4,,00.0,0659.9,31.0
2021-09-16T20:11:00Z,00000200,01000000,0004.01,0002.63,0001.55,0000.25,0000.30,0000.14,0000.34,0000.72,0000.37,18.4,25.4,,00.0,0659.9,31.1
2021-09-16T20:12:00Z,00000200,01000000,0003.64,0002.71,0001.39,-000.30,0000.23,-000.11,0000.36,0000.04,0000.19,18.5,25.4,,00.0,0659.9,31.1
2021-09-16T20:13:00Z,00000200,01000000,0004.27,0002.70,0001.52,0000.28,0000.13,0000.45,0000.20,0000.46,0000.46,18.6,25.5,,00.0,0660.0,31.1
2021-09-16T20:14:00Z,00000200,01000000,0003.78,0002.47,0001.77,0000.37,0000.37,0000.25,0000.39,0000.10,-000.10,18.6,25.5,,00.0,0659.9,31.1
2021-09-16T20:15:00Z,00000200,01000000,0004.06,0002.28,0001.29,0000.42,0000.26,0000.18,0000.38,-000.03,-000.30,18.6,25.5,,00.0,0660.0,31.1
2021-09-16T20:16:00Z,00000200,01000000,0003.08,0002.41,0001.40,0000.08,0000.15,0000.06,-000.02,0000.55,0000.31,18.6,25.5,,00.0,0659.9,31.1
2021-09-16T20:17:00Z,00000200,01000000,0003.44,0002.44,0001.45,0000.50,0000.19,-000.03,0000.19,-000.19,0000.32,18.5,25.5,,00.0,0659.9,31.1
2021-09-16T20:18:00Z,00000200,01000000,0003.49,0002.40,0001.75,-000.01,0000.35,0000.31,0000.35,0000.49,-000.07,18.5,25.4,,00.0,0660.0,31.0
2021-09-16T20:19:00Z,00000200,01000000,0003.26,0002.27,0001.35,0000.45,0000.21,0000.24,0000.28,0000.36,0000.37,18.5,25.4,,00.0,0660.0,31.1
2021-09-16T20:20:00Z,00000200,01000000,0003.23,0002.37,0001.51,0000.39,0000.33,0000.28,0000.20,-000.12,0000.06,18.4,25.4,,00.0,0660.0,31.1
2021-09-16T20:21:00Z,00000200,01000000,0003.79,0002.35,0001.62,0000.95,0000.29,0000.20,0000.09,0000.35,0000.18,18.4,25.4,,00.0,0659.9,31.0
2021-09-16T20:22:00Z,00000200,01000000,0002.65,0001.87,0001.65,0000.16,0000.40,0000.39,0000.57,0000.07,0000.25,18.3,25.3,,00.0,0659.9,31.1
2021-09-16T20:23:00Z,00000200,01000000,0003.30,0002.59,0001.28,0000.75,0000.26,0000.41,0000.18,0000.09,-000.02,18.3,25.3,,00.0,0659.9,31.0
2021-09-16T20:24:00Z,00000200,01000000,0002.63,0002.35,0001.39,0000.58,0000.34,0000.44,0000.84,0000.52,0000.66,18.3,25.3,,00.0,0660.0,31.0
2021-09-16T20:25:00Z,00000200,01000000,0003.55,0002.10,0001.43,0000.13,0000.31,0000.49,0000.27,0000.60,0000.35,18.3,25.3,,00.0,0660.0,31.0
2021-09-16T20:26:00Z,00000200,01000000,0002.96,0002.78,0001.40,-000.04,0000.37,0000.25,0000.26,0000.70,0000.43,18.3,25.3,,00.0,0660.0,31.1
2021-09-16T20:27:00Z,00000200,01000000,0003.37,0002.34,0001.06,0000.02,0000.05,-000.20,0000.30,0000.02,0000.17,18.5,25.3,,00.0,0660.0,31.1
2021-09-16T20:28:00Z,00000200,01000000,0003.05,0002.57,0001.32,0000.14,-000.18,0000.21,0000.37,0000.40,-000.27,18.6,25.4,,00.0,0660.0,31.1
2021-09-16T20:29:00Z,00000200,01000000,0002.38,0002.44,0001.37,0000.72,0000.13,0000.23,0000.24,0000.12,0000.53,18.6,25.5,,00.0,0660.0,31.1
2021-09-16T20:30:00Z,00000200,01000000,0002.68,0002.26,0001.29,-000.07,0000.11,-000.02,0000.32,0000.56,0000.22,18.7,25.5,,00.0,0660.0,31.1
2021-09-16T20:31:00Z,00000200,01000000,0003.08,0001.97,0001.57,0000.41,0000.30,0000.00,0000.10,0000.15,0000.20,18.6,25.5,,00.0,0660.0,31.1
2021-09-16T20:32:00Z,00000200,01000000,0002.26,0002.00,0001.34,0000.46,0000.50,0000.05,0000.06,-000.28,-000.07,18.6,25.4,,00.0,0660.0,31.1
2021-09-16T20:33:00Z,00000200,01000000,0003.16,0002.14,0001.67,0000.25,0000.46,0000.52,0000.60,0000.57,0000.19,18.6,25.4,,00.0,0660.0,31.1
2021-09-16T20:34:00Z,00000200,01000000,0002.75,0001.93,0001.58,0000.27,0000.23,0000.19,0000.02,0000.15,0000.13,18.5,25.4,,00.0,0660.0,31.1
2021-09-16T20:35:00Z,00000200,01000000,0003.30,0002.19,0001.19,0000.27,0000.12,0000.07,0000.25,-000.10,0000.03,18.5,25.4,,00.0,0660.0,31.1
2021-09-16T20:36:00Z,00000200,01000000,0002.77,0001.99,0001.24,-000.32,0000.51,0000.10,0000.39,0000.44,0000.27,18.4,25.3,,00.0,0660.0,31.0
2021-09-16T20:37:00Z,00000200,01000000,0002.84,0002.09,0001.06,0000.65,0000.17,-000.06,0000.26,-000.03,0000.22,18.3,25.3,,00.0,0660.0,31.0
2021-09-16T20:38:00Z,00000200,01000000,0002.41,0001.86,0001.21,0000.18,-000.02,0000.09,0000.06,0000.18,0000.01,18.3,25.3,,00.0,0660.0,31.0
2021-09-16T20:39:00Z,00000200,01000000,0002.74,0001.63,0001.34,0000.06,0000.42,0000.10,0000.35,0000.15,0000.39,18.3,25.2,,00.0,0660.0,31.0
2021-09-16T20:40:00Z,00000200,01000000,0003.20,0001.92,0001.08,0000.53,0000.21,0000.23,0000.62,0000.79,0000.25,18.3,25.2,,00.0,0660.0,31.0
2021-09-16T20:41:00Z,00000200,01000000,0003.72,0001.67,0000.91,0000.16,0000.13,0000.14,-000.00,0000.29,0000.14,18.4,25.3,,00.0,0660.0,31.1
2021-09-16T20:42:00Z,00000200,01000000,0002.72,0002.19,0001.33,0000.58,0000.09,0000.20,0000.69,0000.06,0000.37,18.4,25.3,,00.0,0660.0,31.1
2021-09-16T20:43:00Z,00000200,01000000,0002.80,0001.96,0001.12,0000.52,0000.14,0000.26,0000.05,0000.37,0000.37,18.6,25.3,,00.0,0660.0,31.1
2021-09-16T20:44:00Z,00000200,01000000,0002.13,0002.01,0001.19,0000.88,0000.23,0000.17,-000.06,-000.10,-000.12,18.6,25.4,,00.0,0660.0,31.1
2021-09-16T20:45:00Z,00000200,01000000,0002.51,0002.18,0001.33,0000.19,0000.07,0000.22,0000.91,0000.44,0000.47,18.7,25.5,,00.0,0660.0,31.1
2021-09-16T20:46:00Z,00000200,01000000,0002.96,0001.56,0001.42,0000.12,0000.33,-000.12,-000.27,-000.41,-000.36,18.7,25.5,,00.0,0660.1,31.1
2021-09-16T20:47:00Z,00000200,01000000,0003.01,0001.96,0001.31,0000.05,0000.03,0000.61,0000.38,0000.72,0000.35,18.6,25.4,,00.0,0660.1,31.1
2021-09-16T20:48:00Z,00000200,01000000,0002.39,0001.67,0001.16,0000.46,0000.25,0000.51,0000.25,0000.18,0000.02,18.6,25.4,,00.0,0660.0,31.1
2021-09-16T20:49:00Z,00000200,01000000,0003.48,0001.63,0000.95,0000.42,0000.28,0000.40,0000.23,0000.49,0000.39,18.5,25.4,,00.0,0660.0,31.1
2021-09-16T20:50:00Z,00000200,01000000,0002.29,0001.64,0000.67,0000.32,0000.36,-000.10,0000.36,0000.29,0000.39,18.5,25.3,,00.0,0660.1,31.1
2021-09-16T20:51:00Z,00000200,01000000,0002.95,0002.03,0001.28,-000.10,0000.33,0000.53,0000.51,0000.12,-000.16,18.4,25.3,,00.0,0660.1,31.0
2021-09-16T20:52:00Z,00000200,01000000,0003.40,0001.79,0001.06,0000.43,0000.53,0000.21,0000.02,0000.14,0000.58,18.4,25.3,,00.0,0660.1,31.0
2021-09-16T20:53:00Z,00000200,01000000,0002.19,0001.53,0001.28,-000.92,0000.23,0000.16,0000.03,0000.08,-000.49,18.3,25.3,,00.0,0660.1,31.0
2021-09-16T20:54:00Z,00000200,01000000,0003.70,0001.72,0000.98,0000.53,0000.39,0000.12,0000.15,0000.51,0000.41,18.3,25.2,,00.0,0660.1,31.0
2021-09-16T20:55:00Z,00000200,01000000,0002.67,0002.06,0000.97,0000.03,0000.04,0000.03,0000.78,0000.55,0000.58,18.3,25.2,,00.0,0660.1,31.0
2021-09-16T20:56:00Z,00000200,01000000,0002.37,0001.67,0000.86,0000.25,0000.12,-000.03,0000.21,0000.11,0000.05,18.4,25.2,,00.0,0660.1,31.0
2021-09-16T20:57:00Z,00000200,41000000,,,,,,,0001.65,0001.29,0001.35,18.4,25.3,,00.0,0660.3,31.1
2021-09-16T20:58:00Z,00000200,61000000,,,,,,,-000.42,-000.25,-000.50,18.2,25.5,,00.0,0659.2,31.1
2021-09-16T20:59:00Z,00000200,21000000,,,,,,,-000.64,-000.14,-000.06,18.2,25.6,,00.0,0659.1,31.1
